Location: Cercedilla
(40.7379°N, 4.0638°W)
Time: 07:36:16
(UTC+00:00)

YAOGAN 11 - Pass Details

Date: 07 June 2020
Orbit: 614 x 668 km, 98.3° (Epoch: 04 July)

Event Time Altitude Azimuth Distance (km) Brightness Sun altitude
Exits shadow 00:32:04 59° 323° (NW) 721 4.5 -26.4°
Drops below altitude 10° 00:35:38 10° 344° (NNW) 1,985 7.5 -26.3°
Sets 00:37:49 0° 346° (NNW) 2,893 8.6 -26.3°
